Location: Grand Lay
(47.3253°N, 0.9468°E)
Time: 08:13:24
(UTC+00:00)

CZ-4C R/B - Pass Details

Date: 18 January 2026
Orbit: 482 x 1496 km, 63.4° (Epoch: 15 February)

Event Time Altitude Azimuth Distance (km) Brightness Sun altitude
Exits shadow 06:00:20 11° 330° (NNW) 2,635 4.4 -16.0°
Maximum altitude 06:05:54 32° 32° (NNE) 1,819 4.1 -15.1°
Drops below altitude 10° 06:12:53 10° 92° (E) 3,314 6.6 -13.9°
Sets 06:16:25 0° 102° (ESE) 4,414 7.9 -13.3°
